DW1521 Weather Reports


time (UTC)temp
C
wind
direction
speed
KPH
gust
KPH
rain 1hr
cm
rain 24hr
cm
rain mn
cm
humidity
%
barometer
mb
20260507091835 22 258 4.8 11.3 0.00 0.00 0.00 48 1017.1
20260507090836 22 217 3.2 9.7 0.00 0.00 0.00 50 1017.2
20260507085836 21 275 4.8 9.7 0.00 0.00 0.00 50 1017.2
20260507085335 21 145 3.2 9.7 0.00 0.00 0.00 50 1017.0
20260507084336 21 260 4.8 9.7 0.00 0.00 0.00 51 1017.1
20260507083836 21 172 3.2 8.0 0.00 0.00 0.00 53 1017.4
20260507082836 20 148 3.2 8.0 0.00 0.00 0.00 54 1017.3
20260507082335 20 151 4.8 8.0 0.00 0.00 0.00 55 1017.2
20260507081336 19 178 3.2 8.0 0.00 0.00 0.00 57 1017.2
20260507075836 18 162 1.6 3.2 0.00 0.00 0.00 57 1017.2
20260507075336 18 71 3.2 4.8 0.00 0.00 0.00 57 1017.1
20260507074336 18 45 3.2 8.0 0.00 0.00 0.00 58 1017.2
20260507073835 18 101 4.8 9.7 0.00 0.00 0.00 60 1017.3
20260507072836 17 13 1.6 4.8 0.00 0.00 0.00 61 1017.3
20260507072336 17 30 3.2 8.0 0.00 0.00 0.00 62 1017.4
20260507071336 16 281 1.6 3.2 0.00 0.00 0.00 63 1017.5
20260507070836 16 286 3.2 8.0 0.00 0.00 0.00 63 1017.4
20260507070336 16 281 4.8 8.0 0.00 0.00 0.00 63 1017.4
20260507065336 16 250 1.6 3.2 0.00 0.00 0.00 65 1017.5
20260507064836 15 249 0.0 3.2 0.00 0.00 0.00 65 1017.4
20260507063837 15 324 0.0 1.6 0.00 0.00 0.00 65 1017.3
20260507062836 15 312 1.6 3.2 0.00 0.00 0.00 65 1017.4
20260507061835 15 259 1.6 9.7 0.00 0.00 0.00 66 1017.4
20260507061336 15 218 3.2 8.0 0.00 0.00 0.00 66 1017.5
20260507060836 14 243 3.2 8.0 0.00 0.00 0.00 67 1017.5
20260507055335 13 125 1.6 8.0 0.00 0.00 0.00 69 1017.1
20260507054836 13 157 1.6 4.8 0.00 0.00 0.00 70 1017.3
20260507054336 12 147 3.2 8.0 0.00 0.00 0.00 70 1017.1
20260507053835 12 158 3.2 8.0 0.00 0.00 0.00 70 1017.1
20260507053336 12 162 3.2 8.0 0.00 0.00 0.00 70 1017.2
20260507052336 11 176 3.2 4.8 0.00 0.00 0.00 70 1017.3
20260507051836 11 177 1.6 3.2 0.00 0.00 0.00 70 1017.4
20260507044836 10 206 1.6 3.2 0.00 0.00 0.00 70 1017.0
20260507044336 9 181 1.6 4.8 0.00 0.00 0.00 70 1016.9
20260507043836 9 193 1.6 3.2 0.00 0.00 0.00 69 1016.8
20260507042836 9 9 0.0 0.0 0.00 0.00 0.00 68 1016.7
20260507040835 8 1 0.0 1.6 0.00 0.00 0.00 68 1016.8
20260507033336 8 330 1.6 1.6 0.00 0.00 0.00 68 1016.3
20260507032336 8 197 0.0 1.6 0.00 0.00 0.00 67 1016.2
20260507031836 8 221 1.6 4.8 0.00 0.00 0.00 67 1016.4
20260507030835 8 39 1.6 3.2 0.00 0.00 0.00 66 1016.3
20260507030335 8 29 1.6 1.6 0.00 0.00 0.00 66 1016.1
20260507025836 8 24 0.0 0.0 0.00 0.00 0.00 66 1015.9
20260507025335 8 28 0.0 1.6 0.00 0.00 0.00 66 1015.5
20260507024335 9 24 1.6 3.2 0.00 0.00 0.00 65 1015.7
20260507020836 9 14 1.6 3.2 0.00 0.00 0.00 64 1015.8
20260507020336 9 267 0.0 1.6 0.00 0.00 0.00 64 1015.6
20260507015836 10 250 0.0 1.6 0.00 0.00 0.00 64 1015.4
20260507014835 10 279 0.0 1.6 0.00 0.00 0.00 64 1015.3
20260507014336 10 309 0.0 1.6 0.00 0.00 0.00 64 1015.2
20260507012835 10 303 1.6 3.2 0.00 0.00 0.00 63 1015.4
20260507011335 11 279 1.6 1.6 0.00 0.00 0.00 62 1015.3
20260507004335 11 324 1.6 3.2 0.00 0.00 0.00 62 1014.8
20260507003835 11 305 1.6 3.2 0.00 0.00 0.00 62 1014.7
20260507003336 11 327 1.6 8.0 0.00 0.00 0.00 62 1014.7
20260507001836 12 329 1.6 3.2 0.00 0.00 0.00 61 1014.8
20260507000835 12 22 0.0 1.6 0.00 0.00 0.00 61 1014.7
20260507000336 12 1 1.6 3.2 0.00 0.00 0.00 61 1014.5
20260506232836 12 24 1.6 3.2 0.00 0.00 0.00 59 1014.4
20260506231335 13 23 0.0 4.8 0.00 0.00 0.00 59 1014.3
20260506225335 13 11 1.6 8.0 0.00 0.00 0.00 58 1013.9
20260506224836 13 2 1.6 1.6 0.00 0.00 0.00 57 1014.0
20260506224336 13 42 0.0 1.6 0.00 0.00 0.00 56 1014.0
20260506223835 13 31 0.0 1.6 0.00 0.00 0.00 56 1014.0
20260506223335 14 33 1.6 1.6 0.00 0.00 0.00 56 1014.0
20260506221835 14 359 0.0 0.0 0.00 0.00 0.00 55 1014.0
20260506220835 15 67 0.0 1.6 0.00 0.00 0.00 55 1013.9
20260506215835 15 72 1.6 3.2 0.00 0.00 0.00 55 1013.8
20260506215335 15 72 3.2 3.2 0.00 0.00 0.00 54 1013.7
20260506214835 15 69 0.0 1.6 0.00 0.00 0.00 54 1013.6
20260506214335 15 69 0.0 3.2 0.00 0.00 0.00 54 1013.8
20260506213836 15 71 1.6 3.2 0.00 0.00 0.00 54 1013.6
20260506213335 15 69 3.2 3.2 0.00 0.00 0.00 54 1013.6
20260506212836 16 67 1.6 3.2 0.00 0.00 0.00 53 1013.7
20260506211836 16 97 3.2 8.0 0.00 0.00 0.00 53 1013.6
20260506211336 16 83 1.6 4.8 0.00 0.00 0.00 52 1013.6
20260506210335 16 91 1.6 3.2 0.00 0.00 0.00 52 1013.6
20260506205335 16 102 1.6 3.2 0.00 0.00 0.00 51 1013.5
20260506204336 17 104 1.6 4.8 0.00 0.00 0.00 51 1013.5
20260506202335 17 80 3.2 8.0 0.00 0.00 0.00 51 1013.4
20260506195835 17 154 3.2 12.9 0.00 0.00 0.00 49 1013.2
20260506195335 17 124 11.3 22.5 0.00 0.00 0.00 50 1013.1
20260506194335 17 100 4.8 8.0 0.00 0.00 0.00 47 1013.0
20260506193835 17 103 4.8 9.7 0.00 0.00 0.00 46 1012.9
20260506193336 17 91 3.2 9.7 0.00 0.00 0.00 46 1012.8
20260506192336 18 71 3.2 9.7 0.00 0.00 0.00 45 1012.6
20260506185836 18 76 1.6 8.0 0.00 0.00 0.00 44 1012.5
20260506184835 18 56 1.6 11.3 0.00 0.00 0.00 43 1012.5
20260506184336 18 76 1.6 11.3 0.00 0.00 0.00 42 1012.2
20260506183836 18 100 4.8 12.9 0.00 0.00 0.00 42 1012.2
20260506181336 19 30 1.6 3.2 0.00 0.00 0.00 42 1011.8
20260506180335 19 6 1.6 1.6 0.00 0.00 0.00 41 1011.6
20260506174335 20 8 0.0 1.6 0.00 0.00 0.00 41 1011.6
20260506173836 20 315 0.0 3.2 0.00 0.00 0.00 40 1011.6
20260506173335 20 16 1.6 3.2 0.00 0.00 0.00 40 1011.6
20260506172836 20 20 1.6 3.2 0.00 0.00 0.00 40 1011.3
20260506172335 20 18 1.6 3.2 0.00 0.00 0.00 41 1011.5
20260506170835 20 53 1.6 3.2 0.00 0.00 0.00 40 1011.4
20260506165835 20 71 1.6 3.2 0.00 0.00 0.00 41 1011.6
20260506164836 21 68 0.0 1.6 0.00 0.00 0.00 40 1011.6
20260506161836 21 95 1.6 8.0 0.00 0.00 0.00 39 1011.7
20260506161335 21 98 4.8 8.0 0.00 0.00 0.00 39 1011.6
20260506160836 21 101 4.8 9.7 0.00 0.00 0.00 38 1011.6
20260506155835 22 75 3.2 8.0 0.00 0.00 0.00 39 1012.0
20260506154836 22 86 3.2 8.0 0.00 0.00 0.00 38 1012.0
20260506153835 22 83 3.2 8.0 0.00 0.00 0.00 38 1012.0
20260506153335 22 77 3.2 8.0 0.00 0.00 0.00 38 1012.1
20260506150335 22 87 4.8 11.3 0.00 0.00 0.00 37 1012.2
20260506144835 23 92 4.8 9.7 0.00 0.00 0.00 37 1012.4
20260506144336 23 89 4.8 9.7 0.00 0.00 0.00 38 1012.6
20260506142835 23 120 4.8 9.7 0.00 0.00 0.00 38 1012.6
20260506142335 23 108 3.2 8.0 0.00 0.00 0.00 38 1012.5
20260506141335 23 113 4.8 9.7 0.00 0.00 0.00 36 1012.5
20260506140335 23 105 1.6 8.0 0.00 0.00 0.00 34 1012.6
20260506135835 23 88 4.8 12.9 0.00 0.00 0.00 34 1013.1
20260506134836 24 137 4.8 9.7 0.00 0.00 0.00 33 1013.1
20260506134335 25 145 4.8 11.3 0.00 0.00 0.00 32 1013.1
20260506133335 25 155 6.4 14.5 0.00 0.00 0.00 32 1013.1
20260506132335 25 175 6.4 12.9 0.00 0.00 0.00 32 1013.1
20260506130335 27 87 1.6 9.7 0.00 0.00 0.00 29 1013.3
20260506125335 27 71 6.4 11.3 0.00 0.00 0.00 30 1013.5
20260506124335 27 27 4.8 11.3 0.00 0.00 0.00 30 1013.6
20260506123335 27 54 4.8 11.3 0.00 0.00 0.00 29 1013.5
20260506122836 27 104 4.8 11.3 0.00 0.00 0.00 29 1013.6
20260506121835 27 137 8.0 14.5 0.00 0.00 0.00 30 1013.8
20260506120835 27 89 8.0 14.5 0.00 0.00 0.00 29 1014.1
20260506114836 27 231 3.2 11.3 0.00 0.00 0.00 30 1014.5
20260506113835 27 278 1.6 4.8 0.00 0.00 0.00 30 1014.7
20260506113336 27 329 3.2 8.0 0.00 0.00 0.00 30 1014.6
20260506112836 26 265 3.2 8.0 0.00 0.00 0.00 30 1014.8
20260506111835 26 293 3.2 11.3 0.00 0.00 0.00 30 1014.9
20260506105336 26 221 4.8 9.7 0.00 0.00 0.00 31 1015.5
20260506104335 26 283 3.2 9.7 0.00 0.00 0.00 31 1015.5
20260506103835 26 311 3.2 9.7 0.00 0.00 0.00 33 1015.5
20260506101336 25 293 8.0 12.9 0.00 0.00 0.00 33 1015.7
20260506100835 25 75 3.2 9.7 0.00 0.00 0.00 34 1015.9
20260506094835 24 286 4.8 11.3 0.00 0.00 0.00 36 1016.3